Wind_Speed
11 10 10 9 9 9 9 9 9 8 8 7 7 6 6 7 6 6 7 8 8 8 8 9 9 9 9 9 8 8 8 7 6 6 6 6 6 6 5 5 5 5 5
11 10 9 9 8 8 8 8 8 8 7 7 7 6 6 6 6 6 7 7 7 7 7 8 8 8 8 8 8 8 7 7 7 6 6 6 6 5 5 5 5 5 5
11 10 9 8 8 8 7 7 7 7 7 7 7 6 6 6 6 5 6 7 7 7 7 7 7 7 7 8 8 7 7 7 6 6 6 6 5 5 4 4 4 5 5
10 9 8 8 8 7 7 7 6 6 6 6 6 6 6 6 6 5 5 6 6 6 6 6 6 7 7 7 7 7 7 6 6 6 6 6 5 4 4 3 4 4 4
10 9 8 8 8 8 7 7 6 6 6 6 5 6 6 6 5 5 6 6 6 6 6 6 6 6 6 6 7 7 6 5 5 5 5 5 4 4 4 4 4 4 4
10 9 8 8 8 8 7 7 6 6 6 5 5 5 6 6 5 5 5 5 5 5 5 5 6 5 6 6 7 6 6 5 5 4 4 4 4 4 4 4 4 4 4
10 9 9 8 8 7 7 6 6 5 5 5 5 5 6 6 5 5 5 4 4 4 5 5 6 6 6 6 6 6 5 5 4 3 3 3 3 4 4 4 4 4 4
10 10 9 9 8 7 7 6 5 5 4 4 4 4 5 5 5 5 4 4 4 4 4 5 5 5 5 5 5 5 4 4 4 3 3 3 3 3 3 3 3 3 3
11 10 9 9 8 7 7 6 5 5 5 4 4 4 4 4 4 4 4 4 3 4 4 5 5 4 4 4 4 4 4 3 2 2 2 2 3 3 3 3 3 3 4
11 10 9 9 8 8 7 7 6 6 6 5 5 4 4 4 3 4 3 3 3 3 3 4 5 4 3 3 4 3 3 3 2 2 2 2 2 2 2 3 3 3 3
10 11 10 9 9 8 7 7 7 6 6 6 5 4 4 3 3 3 3 3 3 3 3 4 4 4 3 3 3 3 2 2 1 2 2 1 1 1 2 2 3 3 3
10 10 11 10 9 9 8 8 7 7 6 6 5 5 4 3 2 2 2 2 3 3 3 3 3 3 3 2 2 2 2 2 2 2 1 0 1 1 2 2 3 3 3
11 11 11 10 10 11 10 9 8 8 7 6 5 5 5 4 2 2 1 1 2 3 3 3 3 3 3 2 2 3 3 2 1 1 1 1 1 1 2 2 3 3 3
12 12 11 10 11 11 10 10 9 8 7 7 6 5 5 4 3 2 1 1 2 2 2 2 3 2 2 2 2 2 2 1 1 1 0 0 1 1 2 3 3 3 4
12 12 11 11 10 11 11 10 9 8 8 8 7 6 6 5 4 3 2 1 2 2 1 2 2 2 2 2 1 1 1 1 2 2 1 1 1 2 2 3 3 4 4
13 13 12 11 11 11 11 11 10 9 8 8 7 6 6 5 4 3 2 2 1 1 1 1 1 2 2 2 2 2 2 2 2 3 2 2 3 3 3 3 4 4 3
13 12 12 11 10 10 11 11 10 9 9 8 7 7 6 5 4 3 3 2 1 0 1 0 0 1 1 1 3 3 3 3 3 3 3 3 4 4 4 4 4 5 5
12 12 12 11 10 10 10 10 10 10 9 8 8 7 7 6 5 4 2 2 2 1 0 1 1 1 1 2 3 4 4 5 4 4 3 4 5 4 5 5 5 6 6
12 12 12 11 10 10 10 9 9 9 10 8 7 7 7 6 5 5 3 2 2 1 1 1 2 1 1 2 2 3 4 4 4 5 4 5 5 5 5 5 6 6 7
11 12 12 11 10 9 10 10 10 9 9 9 7 7 6 6 6 5 4 4 2 2 1 1 1 2 2 2 3 3 3 4 5 5 5 6 6 6 6 6 6 6 7
11 11 12 12 11 11 10 10 10 10 9 9 8 7 8 7 7 6 5 4 4 3 2 2 2 3 3 3 3 3 4 4 5 6 6 7 7 8 8 8 7 7 7
11 11 11 11 11 11 11 11 10 10 9 9 9 9 9 8 7 6 6 5 4 4 3 3 3 3 3 3 4 4 4 5 6 6 7 7 7 8 8 8 8 8 8
10 10 11 11 10 10 10 10 10 10 10 10 10 9 9 9 8 8 7 6 5 4 4 4 3 3 3 4 5 5 6 6 6 7 7 8 9 9 9 9 9 9 9
9 9 10 10 10 10 10 10 10 10 10 10 10 10 10 9 9 9 8 8 7 6 5 4 4 4 4 5 6 6 6 6 7 7 8 8 10 10 10 11 11 10 11
7 8 9 9 9 9 9 9 9 10 10 10 10 11 11 10 10 9 9 8 8 7 6 5 5 5 6 7 7 7 7 8 8 8 9 10 10 11 11 11 12 13 13
6 7 8 8 9 9 9 9 9 8 9 9 9 10 10 10 10 10 10 9 9 9 7 7 7 7 7 8 8 8 9 9 9 9 9 11 11 11 12 12 13 13 14
Wind_Direction
67 70 71 66 67 68 68 68 68 70 71 73 82 88 89 83 84 90 106 113 117 123 124 127 123 122 122 122 122 127 129 125 127 130 136 145 147 151 154 156 158 156 150
67 69 69 66 64 65 66 67 67 68 70 73 77 80 84 88 95 103 110 118 120 121 127 130 126 125 124 124 124 125 127 126 123 124 128 140 152 160 161 165 166 161 164
68 68 68 64 63 66 67 66 68 68 67 71 74 75 82 91 99 110 112 119 125 123 126 135 133 129 129 128 126 123 122 122 121 122 128 134 145 160 170 173 175 170 168
65 64 65 62 64 67 68 64 64 64 64 67 70 72 77 86 88 99 112 120 126 128 127 133 135 133 134 134 130 125 123 122 124 121 123 127 137 145 152 161 169 172 172
59 57 57 59 64 67 70 67 62 61 61 64 67 68 75 85 92 98 107 117 124 129 130 132 133 132 136 140 138 132 130 128 125 121 126 125 133 142 145 147 162 162 167
56 52 55 58 63 67 70 68 62 63 63 65 68 66 69 77 85 94 105 114 121 126 132 139 138 133 136 138 141 140 137 134 129 120 121 123 132 142 140 137 142 157 162
54 53 57 58 62 65 65 65 65 66 63 66 70 71 69 71 74 88 109 110 113 128 133 138 134 131 134 136 139 140 140 144 143 132 130 134 139 141 138 130 130 140 148
54 55 58 58 65 65 63 61 62 63 61 64 68 73 73 73 77 86 100 102 108 117 127 128 132 131 127 133 137 138 142 144 143 147 151 161 152 145 146 141 137 144 153
54 54 57 57 59 61 61 58 57 55 53 54 57 65 75 78 81 85 97 99 104 111 115 120 124 125 126 132 138 145 149 145 133 132 151 160 156 156 159 163 167 160 163
51 50 50 54 55 55 54 49 50 50 51 54 57 62 68 74 81 81 93 104 113 125 119 126 129 128 133 135 141 145 149 150 138 140 142 151 152 158 170 174 174 168 171
51 49 49 52 56 54 52 47 48 52 56 59 63 57 59 75 77 76 94 113 122 129 133 136 136 137 139 140 148 146 150 154 134 114 116 135 152 164 172 174 168 172 173
53 52 53 56 55 53 56 57 55 55 62 61 59 53 55 69 78 79 95 122 128 131 137 136 137 143 141 143 155 160 161 147 125 88 59 111 173 184 183 187 186 194 196
54 55 54 55 56 55 58 61 59 59 59 58 52 48 52 62 79 89 99 110 149 153 151 148 146 151 155 154 145 151 163 146 114 65 39 21 197 203 206 206 210 215 220
55 56 56 58 60 60 61 65 64 64 64 59 55 55 51 55 80 101 85 111 138 156 168 156 155 164 171 161 141 156 171 157 146 157 11 330 215 233 243 238 236 231 233
55 57 59 63 62 62 61 60 61 57 58 55 51 53 52 53 64 83 88 119 131 143 152 153 163 192 206 191 161 168 172 199 208 219 250 264 250 250 259 258 244 243 241
57 57 60 62 62 62 60 60 60 57 53 46 48 50 51 52 62 74 86 109 128 138 145 173 204 204 214 208 214 220 218 227 240 240 247 256 255 251 253 254 244 244 249
54 54 56 59 60 60 60 60 61 59 57 51 50 53 54 57 65 72 81 85 102 176 173 181 203 216 232 229 229 240 247 243 246 236 246 251 252 253 253 249 246 248 250
49 48 50 53 57 60 60 58 57 55 55 53 52 52 52 55 59 53 54 65 67 62 109 223 253 284 297 257 252 251 249 246 241 237 244 249 256 256 255 254 253 254 249
47 47 48 50 53 57 56 53 52 52 54 52 52 50 47 45 41 39 42 33 14 10 341 285 268 280 312 287 271 260 251 243 243 242 243 256 262 258 258 258 258 257 256
48 48 48 49 51 51 49 48 47 49 49 46 47 47 44 39 35 32 28 18 4 342 315 300 299 313 315 298 283 271 263 253 251 250 252 257 259 259 257 261 264 260 257
48 48 49 49 49 49 49 47 46 47 50 51 48 42 38 31 23 20 21 17 10 354 336 319 316 311 307 299 290 283 278 271 258 255 256 259 258 260 260 261 263 263 261
48 48 49 48 47 46 45 43 43 44 43 42 39 35 28 25 25 23 16 14 9 357 345 334 330 326 308 299 295 293 288 276 272 264 263 265 266 267 267 262 259 265 260
48 47 46 45 43 41 41 40 39 37 37 34 32 30 25 25 24 19 17 13 9 6 5 358 351 338 315 305 304 301 293 278 278 275 272 273 273 275 271 265 263 264 262
41 42 42 42 39 37 36 37 38 36 35 33 30 28 27 28 27 22 21 16 9 4 358 355 342 330 317 309 306 303 298 292 288 282 280 275 273 274 274 270 266 266 267
31 35 37 36 35 34 33 33 33 31 30 29 28 28 27 27 26 22 19 17 12 3 354 344 335 323 318 311 305 301 299 295 288 281 277 276 276 275 275 270 267 265 266
22 24 27 29 29 30 30 27 26 26 25 24 24 24 24 25 23 20 16 14 8 2 355 345 338 326 317 312 307 303 297 291 286 285 284 281 279 276 275 272 269 266 265
Height
5886 5885 5885 5885 5884 5884 5883 5883 5883 5882 5882 5882 5881 5881 5880 5880 5880 5880 5880 5880 5880 5880 5881 5881 5881 5882 5882 5883 5884 5884 5884 5884 5885 5885 5885 5886 5886 5886 5887 5887 5887 5887 5887
5887 5887 5886 5886 5885 5885 5885 5884 5884 5884 5883 5883 5882 5882 5881 5881 5881 5881 5881 5881 5881 5881 5882 5882 5882 5883 5883 5884 5884 5885 5885 5885 5885 5886 5886 5886 5886 5886 5887 5887 5887 5887 5888
5888 5888 5888 5887 5887 5886 5886 5886 5885 5885 5884 5884 5884 5883 5883 5882 5882 5882 5882 5882 5882 5882 5882 5883 5883 5884 5884 5885 5885 5885 5886 5886 5886 5886 5886 5886 5887 5887 5887 5887 5887 5887 5888
5890 5890 5889 5888 5888 5887 5887 5887 5886 5886 5885 5885 5884 5884 5884 5883 5883 5882 5882 5883 5883 5883 5883 5884 5884 5884 5885 5885 5886 5886 5886 5886 5886 5886 5887 5887 5887 5887 5887 5887 5887 5887 5888
5891 5891 5890 5889 5889 5888 5888 5888 5887 5886 5886 5886 5885 5885 5884 5884 5884 5883 5883 5884 5884 5884 5884 5884 5885 5885 5886 5886 5886 5887 5887 5887 5887 5887 5887 5887 5887 5887 5887 5887 5887 5887 5888
5893 5892 5891 5890 5890 5889 5889 5888 5888 5887 5887 5887 5886 5886 5885 5885 5885 5885 5884 5885 5885 5885 5885 5885 5885 5886 5886 5887 5887 5887 5887 5887 5888 5888 5887 5887 5887 5887 5887 5887 5887 5887 5888
5894 5893 5892 5891 5891 5890 5890 5889 5888 5888 5888 5887 5887 5886 5886 5886 5886 5885 5885 5885 5885 5885 5885 5886 5886 5886 5887 5887 5887 5888 5888 5888 5888 5888 5888 5888 5888 5888 5888 5888 5888 5887 5888
5895 5894 5893 5892 5892 5891 5890 5890 5889 5889 5888 5888 5887 5887 5887 5887 5886 5886 5886 5886 5886 5886 5886 5886 5886 5887 5887 5887 5888 5888 5888 5888 5888 5888 5888 5888 5888 5888 5888 5888 5888 5888 5888
5896 5895 5894 5893 5893 5892 5891 5890 5890 5889 5889 5888 5888 5887 5887 5887 5887 5887 5887 5887 5886 5886 5886 5886 5887 5887 5887 5887 5888 5888 5888 5888 5888 5888 5888 5888 5888 5887 5887 5887 5887 5887 5888
5898 5896 5896 5895 5894 5893 5892 5891 5891 5890 5889 5889 5888 5888 5888 5887 5887 5887 5887 5887 5887 5887 5887 5887 5887 5887 5888 5888 5888 5888 5888 5888 5888 5888 5888 5888 5887 5887 5887 5887 5887 5887 5887
5899 5898 5897 5896 5895 5894 5893 5892 5891 5890 5890 5889 5889 5888 5888 5888 5888 5888 5888 5887 5887 5887 5887 5887 5887 5888 5888 5888 5888 5888 5888 5888 5888 5888 5888 5887 5887 5887 5887 5886 5887 5887 5887
5901 5899 5898 5897 5896 5895 5894 5893 5892 5891 5890 5890 5889 5889 5888 5888 5888 5888 5888 5888 5888 5888 5888 5888 5888 5888 5888 5888 5888 5888 5888 5888 5888 5888 5888 5887 5887 5887 5887 5886 5886 5886 5886
5902 5900 5899 5898 5897 5896 5895 5893 5892 5892 5892 5891 5890 5889 5889 5889 5888 5888 5888 5888 5888 5888 5888 5888 5888 5888 5888 5888 5888 5888 5888 5888 5888 5888 5888 5887 5887 5887 5887 5886 5886 5886 5886
5903 5902 5901 5899 5898 5897 5896 5895 5894 5893 5893 5892 5891 5890 5890 5889 5889 5889 5888 5888 5888 5888 5888 5888 5888 5888 5888 5888 5888 5888 5887 5887 5888 5887 5887 5887 5886 5886 5886 5886 5886 5886 5885
5904 5903 5902 5901 5899 5898 5897 5896 5895 5894 5893 5893 5892 5891 5891 5890 5890 5889 5889 5888 5888 5888 5888 5888 5888 5888 5888 5887 5887 5887 5887 5887 5887 5887 5887 5887 5886 5886 5886 5885 5885 5885 5885
5906 5905 5903 5902 5901 5900 5899 5897 5896 5895 5894 5893 5893 5892 5891 5891 5890 5890 5889 5889 5888 5888 5888 5888 5887 5887 5887 5887 5887 5887 5887 5887 5886 5886 5886 5886 5886 5885 5885 5884 5884 5884 5884
5908 5907 5905 5903 5902 5901 5900 5899 5898 5897 5896 5895 5894 5893 5892 5891 5891 5890 5890 5889 5888 5888 5888 5887 5887 5887 5887 5886 5886 5886 5886 5886 5885 5885 5885 5885 5885 5884 5884 5883 5883 5883 5882
5909 5908 5906 5905 5904 5903 5902 5900 5899 5898 5897 5896 5895 5894 5893 5892 5891 5890 5890 5889 5889 5888 5888 5887 5887 5887 5886 5886 5886 5885 5885 5885 5884 5884 5884 5884 5884 5883 5883 5882 5882 5881 5881
5911 5909 5908 5906 5905 5904 5903 5902 5901 5900 5899 5897 5896 5895 5894 5893 5892 5891 5890 5890 5889 5888 5888 5887 5887 5886 5886 5885 5885 5884 5884 5884 5883 5883 5883 5883 5882 5882 5881 5881 5880 5880 5879
5912 5911 5909 5908 5906 5905 5904 5903 5902 5901 5900 5899 5898 5897 5895 5894 5893 5891 5890 5890 5889 5888 5887 5887 5886 5886 5885 5885 5884 5884 5883 5883 5882 5882 5882 5881 5881 5880 5880 5879 5878 5878 5878
5913 5912 5911 5909 5908 5907 5906 5905 5904 5902 5901 5900 5898 5897 5896 5895 5893 5892 5891 5889 5889 5888 5887 5886 5885 5885 5884 5884 5883 5883 5882 5881 5881 5880 5880 5879 5879 5878 5878 5877 5877 5876 5876
5915 5913 5912 5911 5910 5909 5907 5906 5905 5904 5902 5901 5899 5898 5896 5895 5893 5892 5891 5889 5888 5887 5886 5885 5885 5884 5884 5883 5883 5882 5881 5880 5879 5878 5878 5877 5877 5876 5875 5875 5875 5874 5874
5916 5915 5914 5912 5911 5910 5909 5908 5906 5905 5903 5902 5900 5899 5897 5895 5893 5892 5890 5889 5888 5887 5886 5885 5884 5883 5882 5882 5881 5881 5880 5879 5878 5877 5876 5875 5875 5874 5873 5872 5872 5872 5871
5917 5916 5915 5914 5912 5911 5910 5909 5907 5906 5905 5903 5901 5899 5897 5895 5894 5892 5890 5889 5887 5886 5885 5884 5883 5882 5881 5880 5879 5878 5878 5877 5876 5875 5874 5873 5872 5871 5870 5870 5869 5869 5869
5918 5917 5915 5914 5913 5912 5911 5910 5908 5907 5905 5904 5902 5900 5898 5896 5894 5892 5890 5889 5887 5886 5884 5883 5882 5881 5880 5879 5878 5877 5876 5875 5874 5873 5872 5871 5869 5868 5867 5867 5866 5866 5865
5918 5917 5916 5915 5914 5912 5911 5910 5908 5907 5905 5904 5902 5900 5898 5896 5894 5892 5890 5889 5887 5885 5884 5882 5881 5880 5878 5877 5876 5875 5873 5872 5871 5870 5869 5868 5866 5865 5864 5863 5862 5862 5862